Waarnemingen

Advertentie
Mijn weer
Pau, Frankrijk (7610): temperatuur & dauwpunt: 22.06.2017 05:00:00 - 28.06.2017 05:00:00 (CEST)Pau, Frankrijk (7610): temperatuur 5cm: 22.06.2017 05:00:00 - 28.06.2017 05:00:00 (CEST)Pau, Frankrijk (7610): temperatuur -20cm & temperatuur -100cm: 22.06.2017 05:00:00 - 28.06.2017 05:00:00 (CEST)Pau, Frankrijk (7610): windsnelheid & windstoten: 22.06.2017 05:00:00 - 28.06.2017 05:00:00 (CEST)Pau, Frankrijk (7610): windrichting: 22.06.2017 05:00:00 - 28.06.2017 05:00:00 (CEST)Pau, Frankrijk (7610): luchtdruk: 22.06.2017 05:00:00 - 28.06.2017 05:00:00 (CEST)Pau, Frankrijk (7610): zicht: 22.06.2017 05:00:00 - 28.06.2017 05:00:00 (CEST)Pau, Frankrijk (7610): Zonneschijnduur: 22.06.2017 05:00:00 - 28.06.2017 05:00:00 (CEST)Pau, Frankrijk (7610): neerslag: 22.06.2017 05:00:00 - 28.06.2017 05:00:00 (CEST)
Datum & Tijd tt [°C] td [°C] tt 5cm [°C] tt -20cm [°C] tt -100cm [°C] ff [km/u] ff [kn] fx [km/u] fx [kn] dd ppp [hPa] vv [km] sd [min] rr [mm]
28.06.2017 05:00:00 16,4 14,8 15,5 20,6 18,1 16 9 26 14 W 1007,2 20 0 0,4
28.06.2017 04:00:00 16,4 15,1 14,3 20,6 18,1 8 5 15 8 W 1007,4 13 0 0,2
28.06.2017 03:00:00 16,0 15,0 14,2 20,7 18,1 8 4 13 7 WZW 1007,8 25 0 0,0
28.06.2017 02:00:00 16,4 15,4 14,9 20,7 18,0 6 3 9 5 Z 1008,5 15 0 0,0
28.06.2017 01:00:00 16,9 15,8 14,5 20,7 18,1 6 4 9 5 Z 1009,3 9 0 0,0
28.06.2017 00:00:00 17,2 15,9 14,6 20,8 18,1 3 2 11 6 ZW 1009,8 21 0 0,0
27.06.2017 23:00:00 17,5 15,8 14,9 20,8 18,0 9 5 14 8 WNW 1009,8 25 0 0,0
27.06.2017 22:00:00 17,9 16,1 16,0 20,8 18,1 9 5 27 15 W 1009,1 26 0 0,0
27.06.2017 21:00:00 19,2 16,2 18,0 20,9 18,1 18 10 29 15 WNW 1008,4 28 5 0,0
27.06.2017 20:00:00 19,3 17,3 19,1 20,9 18,1 16 9 32 18 WNW 1008,0 23 11 0,0
27.06.2017 19:00:00 19,3 18,3 18,2 20,9 18,1 10 6 28 15 W 1007,1 13 0 0,6
27.06.2017 18:00:00 18,5 17,7 16,6 20,9 18,1 12 6 31 17 W 1009,1 10 0 16,1
27.06.2017 17:00:00 18,3 16,3 17,3 20,9 18,0 31 17 48 26 WNW 1008,2 1,0 0 5,7
27.06.2017 16:00:00 21,6 18,8 20,6 20,8 18,0 10 6 30 16 WNW 1006,5 7 0 0,4
27.06.2017 15:00:00 24,1 17,3 29,0 20,8 18,0 12 6 20 11 NNW 1006,5 23 2 0,0
27.06.2017 14:00:00 23,5 17,0 26,5 20,9 18,1 4 2 10 5 N 1006,8 29 1 0,0
27.06.2017 13:00:00 23,3 16,6 26,4 20,8 18,0 5 3 14 7 NO 1007,1 24 1 0,0
27.06.2017 12:00:00 22,9 16,0 25,6 20,8 18,0 3 2 10 5 NNO 1007,8 28 0 0,0
27.06.2017 11:00:00 21,7 17,3 24,9 20,9 18,1 5 3 9 5 NO 1008,3 22 0 0,0
27.06.2017 10:00:00 20,8 17,2 22,7 20,9 18,0 4 2 9 5 ONO 1008,6 21 0 0,0
27.06.2017 09:00:00 19,8 16,8 20,3 21,0 18,0 4 2 10 5 O 1009,1 20 0 0,0
27.06.2017 08:00:00 18,9 17,2 18,6 21,0 18,0 0 0 5 3 N 1009,5 18 0 0,0
27.06.2017 07:00:00 18,5 17,3 16,5 21,0 18,1 2 1 5 3 ZW 1009,9 16 0 0,0
27.06.2017 06:00:00 18,2 17,2 15,3 21,1 18,0 0 0 8 4 N 1010,0 14 0 0,0
27.06.2017 05:00:00 18,4 17,4 17,3 21,1 18,0 5 3 10 6 NW 1010,0 16 0 0,0
27.06.2017 04:00:00 18,5 17,3 14,9 21,2 18,0 7 4 9 5 WNW 1010,4 17 0 0,0
27.06.2017 03:00:00 18,9 17,4 15,0 21,2 18,1 3 2 10 5 NW 1010,8 19 0 0,0
27.06.2017 02:00:00 19,2 17,0 16,2 21,2 18,1 3 1 13 7 WNW 1011,2 23 0 0,0
27.06.2017 01:00:00 20,0 17,4 19,0 21,2 18,0 6 3 9 5 NW 1011,8 25 0 0,0
27.06.2017 00:00:00 20,2 17,2 19,2 21,2 18,0 5 3 25 13 NW 1012,0 28 0 0,0
26.06.2017 23:00:00 20,6 17,4 19,3 21,2 18,1 14 8 22 12 WNW 1012,0 26 0 0,0
26.06.2017 22:00:00 20,8 17,8 19,5 21,1 18,0 13 7 23 13 WNW 1011,6 24 0 0,0
26.06.2017 21:00:00 21,8 17,4 20,7 21,1 18,1 17 9 24 13 NW 1011,2 21 6 0,0
26.06.2017 20:00:00 22,9 18,7 23,0 21,0 18,1 16 9 27 15 WNW 1010,6 19 0 0,0
26.06.2017 19:00:00 24,2 18,6 25,2 20,9 18,1 18 10 32 18 WNW 1010,0 35 0 0,0
26.06.2017 18:00:00 26,2 17,6 27,7 20,8 18,1 22 12 28 15 NW 1009,6 30 26 0,0
26.06.2017 17:00:00 28,1 15,4 31,3 20,8 18,1 10 5 19 10 WNW 1009,0 32 40 0,0
26.06.2017 16:00:00 28,1 15,7 35,8 20,7 18,0 5 3 22 12 WZW 1009,0 40 60 0,0
26.06.2017 15:00:00 27,8 17,0 31,3 20,7 18,0 10 5 21 11 WZW 1009,2 43 36 0,0
26.06.2017 14:00:00 26,1 16,9 28,8 20,7 18,1 11 6 22 12 NNW 1009,6 20 8 0,0
26.06.2017 13:00:00 25,4 18,1 26,7 20,7 18,0 16 8 23 12 NW 1009,3 37 0 0,0
26.06.2017 12:00:00 25,3 18,7 22,9 20,7 18,0 11 6 24 13 WNW 1009,2 18 32 0,0
26.06.2017 11:00:00 21,8 19,2 22,5 20,7 18,0 13 7 20 11 W 1009,8 12 7 0,0
26.06.2017 10:00:00 20,6 19,3 21,0 20,7 18,1 13 7 21 11 WNW 1009,0 10 10 0,0
26.06.2017 09:00:00 19,5 18,7 18,9 20,7 18,0 4 2 23 12 NNO 1008,3 13 0 0,2
26.06.2017 08:00:00 18,8 18,0 18,2 20,8 18,1 3 2 13 7 ZZO 1010,1 17 0 0,0
26.06.2017 07:00:00 18,8 18,1 16,9 20,8 18,0 10 5 22 12 ZZO 1010,6 12 0 0,0
26.06.2017 06:00:00 18,8 18,3 16,8 20,8 18,0 8 4 11 6 OZO 1009,9 2,0 0 0,0
26.06.2017 05:00:00 19,0 18,5 17,2 20,8 18,1 4 2 10 5 O 1010,9 0,8 0 0,0
26.06.2017 04:00:00 19,5 18,8 18,4 20,9 18,1 4 2 15 8 O 1011,3 3,8 0 0,0
26.06.2017 03:00:00 19,8 19,0 19,0 20,9 18,1 5 3 9 5 WNW 1012,8 3,9 0 1,0
26.06.2017 02:00:00 20,0 19,2 19,3 20,9 18,0 6 3 21 11 Z 1013,0 8 0 0,2
26.06.2017 01:00:00 20,1 19,1 19,2 20,9 18,1 10 6 15 8 ZZO 1012,6 7 0 1,4
26.06.2017 00:00:00 20,9 18,8 19,5 20,9 18,1 3 2 19 10 ZO 1014,7 3,7 0 0,8
25.06.2017 23:00:00 21,4 18,0 19,1 20,9 18,1 10 5 14 8 W 1014,1 20 0 0,0
25.06.2017 22:00:00 22,8 17,9 20,0 20,8 18,1 6 4 10 5 NW 1013,8 22 0 0,0
25.06.2017 21:00:00 24,1 16,9 22,6 20,8 18,1 5 3 12 6 ONO 1013,4 26 0 0,0
25.06.2017 20:00:00 24,3 16,8 22,6 20,7 18,0 7 4 16 9 O 1013,9 26 0 0,0
25.06.2017 19:00:00 25,2 16,3 25,2 20,7 18,1 11 6 16 9 ZO 1014,5 29 0 0,0
25.06.2017 18:00:00 25,7 16,8 27,8 20,6 18,0 3 2 15 8 OZO 1015,1 29 22 0,0
25.06.2017 17:00:00 25,8 16,4 30,6 20,7 18,1 8 5 18 10 O 1015,7 33 60 0,0
25.06.2017 16:00:00 24,8 15,7 34,2 20,6 18,0 6 4 26 14 ONO 1016,5 19 60 0,0
25.06.2017 15:00:00 24,3 16,3 27,4 20,6 18,0 10 5 19 10 O 1017,5 27 24 0,0
25.06.2017 14:00:00 22,5 15,3 27,1 20,7 18,1 8 5 18 10 ONO 1018,4 27 0 0,0
25.06.2017 13:00:00 22,0 15,8 26,9 20,7 18,0 8 5 16 9 O 1018,9 28 1 0,0
25.06.2017 12:00:00 21,3 15,6 24,5 20,7 18,0 10 5 18 10 ONO 1019,2 20 0 0,0
25.06.2017 11:00:00 19,8 15,6 20,9 20,7 18,1 10 6 18 10 O 1019,7 26 0 0,0
25.06.2017 10:00:00 18,6 15,3 18,7 20,8 18,1 8 4 12 6 O 1020,5 25 0 0,0
25.06.2017 09:00:00 17,9 15,2 17,1 20,8 18,1 7 4 12 6 ONO 1020,6 21 0 0,0
25.06.2017 08:00:00 17,3 15,1 16,6 20,9 18,0 4 2 9 5 NO 1020,2 18 0 0,0
25.06.2017 07:00:00 17,0 15,2 16,5 20,9 18,0 0 0 7 4 N 1020,5 16 0 0,0
25.06.2017 06:00:00 16,9 15,9 15,9 21,0 18,0 2 1 5 3 N 1020,5 14 0 0,0
25.06.2017 05:00:00 16,6 15,6 14,8 21,0 18,0 4 2 6 3 N 1020,5 12 0 0,0
25.06.2017 04:00:00 16,8 15,3 14,1 21,1 18,0 2 1 6 3 WNW 1021,0 17 0 0,0
25.06.2017 03:00:00 16,8 15,3 13,2 21,1 18,0 0 0 6 3 N 1021,4 18 0 0,0
25.06.2017 02:00:00 17,5 15,1 15,6 21,2 18,0 3 1 8 5 NW 1021,8 19 0 0,0
25.06.2017 01:00:00 17,9 15,2 15,8 21,2 18,0 6 4 10 5 WNW 1022,3 18 0 0,0
25.06.2017 00:00:00 18,5 15,4 16,3 21,2 18,0 7 4 11 6 NW 1022,1 17 0 0,0
24.06.2017 23:00:00 19,2 16,6 17,5 21,3 18,1 5 3 10 5 WNW 1021,8 16 0 0,0
24.06.2017 22:00:00 20,1 15,9 18,9 21,3 18,1 4 2 13 7 ZZW 1021,1 18 0 0,0
24.06.2017 21:00:00 20,5 15,9 19,7 21,3 18,0 7 4 13 7 ZZW 1020,8 18 0 0,0
24.06.2017 20:00:00 21,4 15,2 21,7 21,2 18,0 8 5 13 7 ZZW 1020,6 20 0 0,0
24.06.2017 19:00:00 21,8 15,2 22,7 21,2 18,0 5 3 13 7 W 1020,8 21 0 0,0
24.06.2017 18:00:00 21,4 15,5 22,7 21,2 18,0 10 6 15 8 NW 1020,7 22 0 0,0
24.06.2017 17:00:00 22,2 14,8 24,5 21,2 18,0 6 4 12 7 W 1020,8 23 0 0,0
24.06.2017 16:00:00 21,1 15,0 22,1 21,2 18,0 8 5 15 8 NW 1021,3 21 0 0,0
24.06.2017 15:00:00 21,0 14,4 24,2 21,2 18,0 8 5 14 8 NW 1021,3 23 0 0,0
24.06.2017 14:00:00 21,5 15,3 26,0 21,2 18,0 7 4 13 7 WNW 1021,3 21 0 0,0
24.06.2017 13:00:00 21,2 14,8 25,2 21,3 18,0 3 2 12 6 ONO 1021,5 24 0 0,0
24.06.2017 12:00:00 20,8 14,4 24,1 21,3 18,0 6 4 12 6 N 1021,9 21 0 0,0
24.06.2017 11:00:00 20,1 14,0 22,5 21,3 18,0 5 3 13 7 NO 1022,1 23 0 0,0
24.06.2017 10:00:00 19,3 15,2 20,6 21,4 18,0 3 1 9 5 N 1022,3 20 0 0,0
24.06.2017 09:00:00 18,7 15,9 18,6 21,4 18,0 4 2 6 3 Z 1022,4 14 0 0,0
24.06.2017 08:00:00 18,1 16,8 17,9 21,4 18,0 0 0 5 3 N 1022,5 10 0 0,0
24.06.2017 07:00:00 17,9 16,6 17,2 21,5 18,0 0 0 5 3 N 1022,2 8 0 0,0
24.06.2017 06:00:00 17,9 16,2 17,2 21,5 18,0 2 1 6 3 Z 1022,6 10 0 0,0
24.06.2017 05:00:00 17,9 16,4 17,3 21,6 18,0 2 1 5 3 Z 1023,3 14 0 0,0
24.06.2017 04:00:00 17,7 16,0 17,4 21,6 18,0 0 0 5 3 N 1023,8 19 0 0,0
24.06.2017 03:00:00 17,8 16,0 17,4 21,7 18,0 0 0 10 5 N 1024,0 12 0 0,0
24.06.2017 02:00:00 18,0 16,2 17,6 21,7 18,0 6 3 13 7 N 1024,3 9 0 0,0
24.06.2017 01:00:00 18,7 17,5 18,2 21,7 18,0 6 3 14 8 WZW 1024,3 9 0 0,0
24.06.2017 00:00:00 19,0 17,8 18,5 21,8 18,0 8 4 13 7 WZW 1024,4 9 0 0,0
23.06.2017 23:00:00 19,0 18,2 18,8 21,8 18,0 5 3 8 4 WZW 1024,2 8 0 0,0
23.06.2017 22:00:00 19,0 18,2 18,9 21,8 17,9 5 3 13 7 NW 1023,7 4,1 0 0,2
23.06.2017 21:00:00 19,1 18,1 19,0 21,8 17,9 11 6 20 11 NNW 1023,4 3,2 0 0,0
23.06.2017 20:00:00 20,8 18,0 21,1 21,8 17,9 9 5 15 8 W 1022,6 11 0 0,0
23.06.2017 19:00:00 21,5 17,9 22,4 21,8 17,9 8 4 18 10 W 1022,4 17 0 0,0
23.06.2017 18:00:00 21,3 18,1 22,5 21,8 17,9 16 9 21 11 NW 1022,7 18 0 0,0
23.06.2017 17:00:00 22,0 18,0 23,7 21,8 17,9 9 5 14 8 WNW 1022,6 20 0 0,0
23.06.2017 16:00:00 21,8 17,6 22,9 21,8 17,9 10 6 18 10 NW 1022,4 23 0 0,0
23.06.2017 15:00:00 21,9 18,1 24,2 21,8 17,9 13 7 19 10 NNW 1022,6 23 0 0,0
23.06.2017 14:00:00 22,1 18,5 21,6 21,8 17,9 6 4 19 11 NW 1022,8 21 0 0,0
23.06.2017 13:00:00 21,5 18,1 23,1 21,9 17,9 11 6 19 10 NW 1023,1 17 0 0,0
23.06.2017 12:00:00 21,1 18,1 21,7 21,9 17,9 12 6 16 9 WNW 1023,2 15 0 0,0
23.06.2017 11:00:00 20,4 18,2 20,5 22,0 17,9 10 5 14 8 W 1023,1 15 0 0,0
23.06.2017 10:00:00 19,5 18,2 19,3 22,0 17,9 9 5 15 8 WNW 1023,3 11 0 0,0
23.06.2017 09:00:00 18,8 17,8 18,8 22,1 17,9 9 5 14 8 W 1023,2 10 0 0,0
23.06.2017 08:00:00 18,4 17,6 18,3 22,1 17,8 5 3 14 7 WNW 1022,7 8 0 0,0
23.06.2017 07:00:00 18,4 17,7 18,2 22,2 17,8 9 5 15 8 W 1022,4 6 0 1,4
23.06.2017 06:00:00 18,4 17,6 18,3 22,3 17,8 9 5 15 8 WNW 1022,4 7 0 0,0
23.06.2017 05:00:00 18,5 17,7 18,3 22,3 17,8 11 6 22 12 WNW 1022,2 9 0 0,2
23.06.2017 04:00:00 18,6 18,1 18,5 22,3 17,8 10 5 19 10 W 1021,9 1,7 0 0,2
23.06.2017 03:00:00 18,5 18,0 18,5 22,4 17,8 12 7 20 11 W 1021,9 1,9 0 0,0
23.06.2017 02:00:00 18,6 18,1 18,6 22,4 17,8 11 6 19 10 W 1021,9 1,6 0 0,0
23.06.2017 01:00:00 18,7 18,0 18,6 22,5 17,8 8 4 21 11 W 1021,7 2,8 0 0,2
23.06.2017 00:00:00 18,8 18,1 18,7 22,5 17,8 14 8 23 13 WNW 1021,4 6 0 0,0
22.06.2017 23:00:00 18,9 18,2 18,8 22,5 17,8 11 6 24 13 WNW 1020,9 3,3 0 0,0
22.06.2017 22:00:00 19,1 18,3 19,0 22,5 17,8 17 9 25 14 NW 1020,2 3,6 0 0,0
22.06.2017 21:00:00 20,0 18,8 19,8 22,4 17,8 14 8 29 15 WNW 1019,7 2,9 0 0,0
22.06.2017 20:00:00 21,2 18,9 21,8 22,3 17,8 18 10 28 15 WNW 1018,9 6 0 0,0
22.06.2017 19:00:00 23,0 19,2 25,1 22,2 17,8 21 11 34 18 WNW 1018,0 11 17 0,0
22.06.2017 18:00:00 26,6 20,9 30,3 22,2 17,8 21 12 34 18 NW 1017,5 8 60 0,0
22.06.2017 17:00:00 27,8 21,3 33,8 22,1 17,8 17 9 29 16 NNW 1017,1 7 60 0,0
22.06.2017 16:00:00 28,2 22,2 37,4 22,0 17,8 16 8 26 14 N 1016,8 7 60 0,0
22.06.2017 15:00:00 27,6 21,2 39,7 21,9 17,7 10 6 23 12 NNW 1017,1 9 60 0,0
22.06.2017 14:00:00 26,9 21,9 38,7 21,9 17,7 9 5 20 11 NW 1017,1 7 60 0,0
22.06.2017 13:00:00 25,2 20,7 35,2 22,0 17,7 10 5 19 10 NNW 1017,8 7 60 0,0
22.06.2017 12:00:00 24,3 20,8 27,1 22,0 17,7 9 5 18 10 NW 1017,7 5 12 0,0
22.06.2017 11:00:00 22,5 20,4 24,5 22,1 17,7 8 5 17 9 W 1017,9 6 0 0,0
22.06.2017 10:00:00 21,7 20,3 22,7 22,1 17,7 11 6 18 10 NW 1017,8 4,5 0 0,0
22.06.2017 09:00:00 21,0 20,3 22,0 22,1 17,7 10 5 18 10 WNW 1017,2 1,7 14 0,0
22.06.2017 08:00:00 21,0 18,4 17,2 22,2 17,7 6 4 10 5 WNW 1016,6 14 38 0,0
22.06.2017 07:00:00 19,3 16,9 15,4 22,3 17,7 0 0 7 4 N 1016,1 20 3 0,0
22.06.2017 06:00:00 20,9 15,4 16,9 22,3 17,7 5 3 10 5 ZO 1015,6 20 0 0,0
22.06.2017 05:00:00 21,3 16,3 17,3 22,4 17,7 8 5 12 7 ZO 1015,1 19 0 0,0

tt = temperatuur
td = dauwpunt
tt 5cm = temperatuur 5cm
tt -20cm = temperatuur -20cm
tt -100cm = temperatuur -100cm
ff = windsnelheid
fx = windstoten
dd = windrichting
ppp = luchtdruk
vv = zicht
sd = Zonneschijnduur
rr = neerslag

Weerstations in de omgeving